Location: ????????
(56.1167°N, 38.6333°E)
Time: 23:58:42
(UTC+00:00)

Cosmos 2251 Rocket - Visible Passes

Search period start: 15 February 2026 00:00
Search period end: 25 February 2026 00:00
Orbit: 762 x 787 km, 74.0° (Epoch: 14 February)

Date Brightness Start Highest point End Pass type
(mag) Time Alt. Az. Time Alt. Az. Time Alt. Az.
15 Feb 5.3 01:13:34 21° N 01:13:34 21° N 01:16:11 10° NNE visible
15 Feb 5.7 02:53:58 10° NW 02:56:02 12° NNW 02:58:05 10° N visible
15 Feb 6.4 22:58:31 12° NNE 22:58:31 12° NNE 22:58:55 10° NNE visible
16 Feb 5.5 00:38:54 21° N 00:38:54 21° N 00:41:03 10° NNE visible
16 Feb 5.6 02:19:17 13° NNW 02:20:14 14° NNW 02:22:52 10° N visible
16 Feb 5.8 04:03:17 10° N 04:04:56 11° N 04:06:35 10° NNE visible
17 Feb 5.8 00:04:13 20° NNE 00:04:13 20° NNE 00:05:53 10° NNE visible
17 Feb 5.5 01:44:36 16° NNW 01:44:36 16° NNW 01:47:42 10° NNE visible
17 Feb 5.8 03:27:44 10° NNW 03:29:06 11° N 03:30:27 10° NNE visible
17 Feb 6.0 23:29:31 17° NNE 23:29:31 17° NNE 23:30:41 10° NNE visible
18 Feb 5.5 01:09:54 18° NNW 01:09:54 18° NNW 01:12:33 10° NNE visible
18 Feb 5.8 02:51:47 10° NNW 02:53:15 11° N 02:54:44 10° NNE visible
18 Feb 6.3 22:54:49 14° NNE 22:54:49 14° NNE 22:55:28 10° NNE visible
19 Feb 5.6 00:35:12 19° N 00:35:12 19° N 00:37:25 10° NNE visible
19 Feb 5.8 02:15:35 10° NNW 02:17:25 12° NNW 02:19:20 10° N visible
19 Feb 5.8 03:59:51 10° N 04:02:09 13° NNE 04:04:25 10° NE visible
19 Feb 6.5 22:20:06 10° NNE 22:20:06 10° NNE 22:20:11 10° NNE visible
20 Feb 5.8 00:00:29 19° N 00:00:29 19° N 00:02:16 10° NNE visible
20 Feb 5.7 01:40:52 13° NNW 01:41:38 13° NNW 01:44:06 10° N visible
20 Feb 5.9 03:24:35 10° N 03:26:19 11° N 03:28:05 10° NNE visible
20 Feb 6.0 23:25:45 17° NNE 23:25:45 17° NNE 23:27:06 10° NNE visible
21 Feb 5.7 01:06:08 15° NNW 01:06:08 15° NNW 01:08:55 10° NNE visible
21 Feb 5.9 02:49:07 10° NNW 02:50:30 11° N 02:51:53 10° NNE visible
21 Feb 6.2 22:51:01 15° NNE 22:51:01 15° NNE 22:51:55 10° NNE visible
22 Feb 5.7 00:31:24 17° NNW 00:31:24 17° NNW 00:33:46 10° NNE visible
22 Feb 5.9 02:13:16 10° NNW 02:14:39 11° N 02:16:03 10° NNE visible
22 Feb 5.8 03:56:16 10° NNW 03:59:17 15° NNE 04:02:18 10° ENE visible
22 Feb 6.4 22:16:16 12° NNE 22:16:16 12° NNE 22:16:42 10° NNE visible
22 Feb 5.8 23:56:39 18° N 23:56:39 18° N 23:58:38 10° NNE visible
23 Feb 5.9 01:37:03 10° NNW 01:38:49 12° N 01:40:35 10° N visible
23 Feb 5.9 03:21:06 10° N 03:23:31 13° NNE 03:25:57 10° NE visible
23 Feb 5.9 23:21:53 18° N 23:21:53 18° N 23:23:29 10° NNE visible
24 Feb 5.8 01:02:15 12° NNW 01:03:00 13° NNW 01:05:19 10° N visible
24 Feb 5.9 02:45:51 10° N 02:47:43 12° N 02:49:35 10° NNE visible
24 Feb 6.1 22:47:07 16° NNE 22:47:07 16° NNE 22:48:19 10° NNE visible
